Espartinas, Spain
Current Conditions -  °F | °C
As of 9:00 AM on Saturday 20 Dec 2014 (Local Time) from LEZL Reporting Station
Moderate Fog Moderate Fog  
Wind Chill: 43°   Ceiling: 100
Heat Index: 43°   Visibility: 0.28mi
Dew Point: 43°   Wind: 2mph
Humidity: 100%   Direction: 60°ENE
Pressure: 30.48"   Gusts: NA
Location:  37.38°N, 6.13°W
Report Text: LEZL 200800Z 06002KT 0450 R27/0450N R09/0450D FG VV001 06/06 Q1032 NOSIG
Loading
Personal Weather Stations






























Interactive Weather Map New forecast layout! Learn more

10-Day Weather Forecast

Advertisements
Track Severe Weather on mobile